User: anonymous   Login
Location: Unspecified
(0.0000°N, 0.0000°E)
Time: 07:31:22
(UTC+00:00)
Language:

Kosmos-1727 - Orbit

View from above orbital plane
View from above orbital plane
View from above satellite
View from above satellite

Ground track
Ground track

The orbit data is extracted from the following two-line orbital elements,

1 16510U 86008A   18174.87763733  .00000020  00000-0  42264-5 0  9995
2 16510  82.9479 328.9944 0039453  79.6056  72.2784 13.74385503625530
Epoch (UTC): 23 June 2018 21:03:47
Eccentricity: 0.0039453
inclination: 82.9479°
perigee height: 955 km
apogee height: 1013 km
right ascension of ascending node: 328.9944°
argument of perigee: 79.6056°
revolutions per day: 13.74385503
mean anomaly at epoch: 72.2784°
orbit number at epoch: 62553

The dashed part of the orbit path shows where the satellite is in the earth's shadow,  

DLR